Location: Dobie Observatory
(42.2815°N, 84.4219°W)
Time: 07:35:15
(UTC-05:00)

BlueWalker 3 - Visible Passes

Search period start: 16 January 2026 00:00
Search period end: 26 January 2026 00:00
Orbit: 451 x 463 km, 53.2° (Epoch: 16 January)

Date Brightness Start Highest point End Pass type
(mag) Time Alt. Az. Time Alt. Az. Time Alt. Az.
18 Jan 4.1 18:47:13 10° SE 18:47:54 11° SE 18:47:54 11° SE visible
18 Jan 4.8 20:21:23 10° SW 20:21:40 12° SW 20:21:40 12° SW visible
19 Jan 3.1 19:46:06 10° SW 19:48:14 34° SSW 19:48:14 34° SSW visible
20 Jan 2.0 19:10:51 10° SSW 19:14:18 49° SE 19:14:43 46° ESE visible
21 Jan 2.5 18:35:42 10° SSW 18:39:00 37° SE 18:41:07 19° ENE visible
21 Jan 4.2 20:13:15 10° W 20:14:52 22° WNW 20:14:52 22° WNW visible
22 Jan 2.7 19:37:43 10° W 19:41:06 40° NNW 19:41:11 40° NNW visible
23 Jan 2.4 19:02:13 10° WSW 19:05:41 49° NNW 19:07:25 25° NNE visible
24 Jan 2.0 18:26:45 10° WSW 18:30:17 63° NW 18:33:36 11° NE visible
24 Jan 4.3 20:05:46 10° WNW 20:07:20 16° NW 20:07:20 16° NW visible
25 Jan 3.7 19:30:05 10° WNW 19:32:49 20° NNW 19:33:28 19° N visible
